Погода в Рославле

Погода в Рославле : погода сейчас, прогноз погоды и архив. Всё, что Вы хотите узнать о погоде в Рославле!

Хотите узнать прогноз погоды в Рославле? Тогда Вам сюда: Погода в Рославле

Поиск расширенной информации на нашем сайте:

Другие новости

Новости СМИ2

Главная страница сайта

Новости сайта

03.07.2017

Напоминаем, что на нашем специализированном сайте Метеоцентр.Азия вы можете получить высокодетализированные автоматические прогнозы погоды по пунктам России, СНГ и мира в авиационном формате (включающие направление и скорость ветра, видимость, явления погоды, количество и форму облачности, нижнюю и верхнюю границу облачности).

Рекомендуем: аренда дома одесса

Погода в Рославле - сегодня

Время (UTC), дата Ветер
(°,м/с) 
Видим.   Явления Облачность Т
(°С)
Тd
(°С)
f(%) Тe
(°С)
Pmin
(гПа)
dP
(гПа)
Po
(мм)
O2
(г/м3)
Тmin Tmax R s Состояние
почвы
21 15.04.18 200 (Ю) 15000 м    5/0 средняя 
[Ac trans]
+7.6 +5.8 88 +9  1021.7  -0.3  746  291           
00 16.04.18 210 (ЮЗ) 15000 м    4/0 верхняя 
[Ci fib]
+6.2 +5.4 95 +7  1021.4  -0.4  745  293           
03 16.04.18 180 (Ю) 7000 м  дымка  3/0 верхняя 
[Ci fib]
+4.6 +4.1 97 +5  1021.2  -0.4  745  295  +3.8         
06 16.04.18 210 (ЮЗ) 18000 м    9/0 средняя, верхняя 
[Ac trans|Cs]
+12 +5.9 66 +12  1021  0.6  746  287  +3.4        влажная 
09 16.04.18 210 (ЮЗ) 20000 м    8/0 верхняя 
[Cs]
+18.3 +4.4 40 +19  1019.8  -0.7  745  281           
12 16.04.18 230 (ЮЗ) 20000 м    9/3 600 м средняя, верхняя 
[Cu hum|Ac trans|Cs]
+20.2 +3.9 34 +20  1018.4  -1.1  744  279           
15 16.04.18 210 (ЮЗ) 20000 м    9/3 600 м средняя, верхняя 
[Cu med, cong|Ac trans|Cs]
+19.4 +4.9 38 +20  1017  -1.5  743  279           
00 17.04.18 210 (ЮЗ) 28000 м    9/0 средняя 
[Ac und]
+12.9 +5.1 59 +13  1016.5  -0.4  742  285           
03 17.04.18 190 (Ю) 18000 м    9/0 средняя 
[Ac trans]
+10.9 +5.4 69 +12  1016.4  -0.3  742  287  +10.5         
06 17.04.18 210 (ЮЗ) 20000 м    10/0 средняя 
[Ac As]
+14.3 +6.5 59 +14  1016.2  0.2  742  283  +10.5        влажная 
09 17.04.18 200 (Ю) 20000 м    10/0 средняя 
[Ac As]
+17.1 +6.4 49 +18  1016.4  0.4  743  280           
12 17.04.18 190 (Ю) н/о    н/о 
+17.9 +4.3 41 +18  1015.2  -1.1  742  280           
15 17.04.18 190 (Ю) 20000 м    10/0 средняя 
[Ac As]
+15.5 +4.9 49 +16  1014.8  -0.6  741  282           
21 17.04.18 220 (ЮЗ) 50000 м    10/0 средняя 
[Ac As]
+13.2 +6.3 63 +13  1013.2  -1.1  740  283           
03 18.04.18 310 (СЗ) 6{13}  20000 м  {дождь}  10/3 300 м средняя 
[Cu hum|Ac As]
+7.6 +4 78 +6  1014.8  1.4  741  290  +7.6       
06 18.04.18 310 (СЗ) 7-10{12}  20000 м  {дождь}  8/3 1000 м средняя, верхняя 
[Cu hum|Ac trans|Ci]
+8.8 +3.5 69 +7  1015.5  0.8  741  289  +6.9      влажная 
12 18.04.18 290 (З) 7-11{12}  12000 м  слаб. ливневой дождь  9/6 900 м кучево-дожд., средняя 
[Cb calv|Ac cuf]
+10.1 +4.5 68 +8  1015.2  -0.4  741  287           
18 18.04.18 310 (СЗ) 5{12}  12000 м  слаб. дождь  10/5 600 м средняя 
[Frnb|Ac As]
+7.1 +5.3 88 +5  1014.8  0.1  741  290    +11.8  0.3     
03 19.04.18 320 (СЗ) 6-10{12}  5000 м  слаб. дождь  10/10 300 м 
[Frnb|Ns]
+6.2 +5.4 95 +4  1009.9  -1  737  289  +6.2       
06 19.04.18 330 (СЗ) 6{13}  9000 м  слаб. дождь  10/10 300 м 
[Frnb|Ns]
+6.4 +5.2 92 +4  1010  0.1  737  289  +6      влажная 
21 19.04.18 330 (СЗ) 5{10}  50000 м    4/0 верхняя 
[Ci fib]
+6.5 +2.5 76 +5  1015.3  741  291           
00 20.04.18 320 (СЗ) 50000 м    ясно 
+5.5 +1.1 73 +4  1016  0.6  741  293           
03 20.04.18 330 (СЗ) 20000 м    3/0 средняя 
[Ac trans]
+4.4 +0.7 77 +3  1017.6  1.4  743  294  +4.4         
06 20.04.18 340 (С) 20000 м    3/0 верхняя 
[Ci fib]
+9.2 +1.2 57 +8  1018.5  1.3  743  290  +4.4        влажная 
21 20.04.18 260 (З) 50000 м    3/0 верхняя 
[Ci fib]
+8.3 +2 64 +7  1015.3  -1.2  741  289           
Время (UTC), дата Ветер
(°,м/с) 
Видим.   Явления Облачность Т
(°С)
Тd
(°С)
f(%) Тe
(°С)
Pmin
(гПа)
dP
(гПа)
Po
(мм)
O2
(г/м3)
Тmin Tmax R s Состояние
почвы

Для получения пояснительной информации подведите курсор к названию столбца.

ПОГОДА в Рославле - архив

Всё, что Вы хотите узнать о погоде в Рославле - удобно и подробно!

Выберите нужную дату (начиная с 1 января 2015* года) и нажмите кнопку "Найти".
Будут отображены архивные сводки погоды по пункту Рославль, начиная с указанной даты.


Отображать данные в формате CSV (для использования в таблицах Excel)


Внимание! Наш архив погоды предназначен исключительно для личного некоммерческого использования в познавательных целях. Если Вам необходимы официальные справки о состоянии погоды (для производственных, юридических, коммерческих и т.п. целей), обращайтесь в органы Росгидромета.

*Примечание: данная дата относится к архиву по метеостанциям СССР (Россия, СНГ, Балтия).
Архив по метеостанциям Зарубежной Европы и Азии (кроме Китая) хранится 10 дней, по другим регионам земного шара (Китай, Африка, Америка, Австралия, Океания) - 1 день.

Рославль - район местоположения метеостанции


Название, широта, долгота, высота метеостанции:
Рославль 53.9°ш. 32.8°д. 224 м над ур. моря [Российская Федерация]

Дополнительная информация

В oтличие oт бoльшинства пoгoдных сайтoв мы публикуем пoдрoбную метеoинфoрмацию в детальнoм прoфессиoнальнoм фoрмате.

Характеристики температуры и влажнoсти вoздуха измеряются на высoте 2 м в тени вдали oт зданий и деревьев.
Скoрoсть ветра измеряется на высoте 10 м (на урoвне рoста челoвека скoрoсть ветра ниже в 1.5-2 раза). Если метеoстанция нахoдится в гoрoде или в лесу, тo скoрoсть ветра занижена на 2-4 м/с пo сравнению с oткрытым местoм. Скoрoсть ветра над акватoриями крупных рек и oзёр, а также на вершинах хoлмoв на 2-5 м/с выше, чем в oбычных услoвиях.
Атмoсфернoе давление в разных тoчках местнoсти мoжет значительнo oтличаться oт давления на метеoстанции, в зависимoсти oт услoвий рельефа (при пoдъёме на 10 м давление пoнижается примернo на 1 мм рт.ст.).